Location: Pinhey's Point
(45.4411°N, 75.9539°W)
Time: 16:34:48
(UTC-05:00)

Daily predictions for brighter satellites

Satellite Brightness Start Highest point End
(mag) Time Altitude Azimuth Time Altitude Azimuth Time Altitude Azimuth
Cosmos 2341 Rocket 4.2 17:22:26 10° N 17:28:44 81° W 17:35:03 10° S
SL-24 R/B - RUBIN 2 3.5 17:24:23 10° NW 17:29:00 79° NE 17:33:19 10° SE
Cosmos 1656 Rocket 3.6 17:24:20 10° NNW 17:29:48 65° ENE 17:35:18 10° SE
Meteor 1-21 Rocket 4.4 17:24:15 10° S 17:30:10 89° ESE 17:36:08 10° N
ERBS 3.7 17:28:19 10° NNW 17:31:03 22° NNE 17:33:46 10° ENE
CORIOLIS 4.1 17:28:12 10° SSE 17:33:32 81° ENE 17:38:55 10° NNW
ALOS 2.8 17:35:00 10° SE 17:39:16 38° ENE 17:43:35 10° N
Cosmos 1943 Rocket 3.5 17:37:46 10° NW 17:43:05 45° WSW 17:48:18 10° S
Cosmos 2369 Rocket 4.4 17:38:18 10° NW 17:43:11 31° WSW 17:48:06 10° SSW
Cosmos 1328 4.0 17:40:11 10° S 17:44:05 52° E 17:48:01 10° NNE
Cosmos 1777 Rocket 4.0 17:39:37 10° NNW 17:44:52 67° ENE 17:50:06 10° SSE
ERS-2 3.4 17:42:16 10° ESE 17:45:04 21° ENE 17:47:52 10° NNE
CSL-04 Rocket 4.3 17:40:46 10° S 17:46:16 65° WSW 17:51:45 10° NNW
Cosmos 1515 Rocket 4.4 17:44:26 10° NNE 17:48:08 26° ENE 17:51:47 10° SE
Cosmos 1400 Rocket 3.5 17:44:12 10° SSW 17:48:14 60° WNW 17:52:21 10° N
Cosmos 1408 Rocket 3.8 17:44:34 10° SSE 17:48:41 47° E 17:52:50 10° NNE
Cosmos 1300 3.0 17:45:04 10° NNW 17:48:53 71° W 17:52:41 10° S
Cosmos 1076 Rocket 3.7 17:46:28 10° SSW 17:50:50 80° W 17:55:14 10° N
Cosmos 2181 Rocket 4.3 17:45:25 10° SSW 17:51:51 76° W 17:58:18 10° N
IRS-1A Rocket 4.2 17:47:43 10° SSE 17:53:17 81° ENE 17:58:59 10° NNW
USA 161 4.2 17:53:57 10° NW 17:54:19 10° WNW 17:54:40 10° WNW
Cosmos 1340 4.2 17:51:59 10° NNE 17:54:21 16° ENE 17:56:08 12° E
MONITOR-E 4.4 17:53:07 10° SSE 17:56:02 43° ENE 17:58:57 10° N
SPOT 3 Rocket 3.8 17:53:00 10° SE 17:57:54 47° ENE 18:02:51 10° N
Tiangong 1 3.2 17:56:08 10° WSW 17:57:55 17° SSW 17:59:40 10° SSE
SL-8 Rocket 4.3 17:53:07 10° NNW 17:59:19 74° W 18:05:30 10° S
USA 116 4.1 17:55:15 10° NNE 17:59:40 88° ESE 18:04:36 10° SSW
COSMO-SKYMED 1 2.7 17:55:42 10° NNE 17:59:59 54° E 18:04:14 10° S
Lacrosse 5 3.8 17:58:39 10° SE 18:00:29 12° ESE 18:01:41 11° ESE
Geosat 4.0 17:55:27 10° NNE 18:00:31 87° ESE 18:05:33 10° SSW
Cosmos 1703 3.8 17:57:08 10° SSE 18:00:48 36° E 18:04:30 10° NNE
CZ-2C R/B 3.7 17:57:41 10° NNE 18:02:25 82° ESE 18:07:03 10° SSW
Meteor 2-8 Rocket 4.4 17:57:30 10° S 18:03:39 82° E 18:09:50 10° N
BREEZE-M DEB (TANK) 2.0 18:00:18 10° WSW 18:05:17 74° SSE 18:06:52 21° ENE
FENGYUN 3A 3.6 18:00:49 10° SSE 18:06:07 67° ENE 18:11:27 10° N
MOS 1 4.2 18:01:09 10° SSE 18:06:45 71° ENE 18:12:23 10° N
Meteor 2-2 Rocket 4.3 18:02:39 10° NNW 18:08:25 87° W 18:14:03 10° S
SeaSat 1 4.4 18:04:47 10° S 18:09:12 33° WSW 18:13:40 10° NW
Cosmos 2218 Rocket 4.3 18:04:16 10° NNW 18:10:24 72° W 18:16:30 10° S
Cosmos 1980 Rocket 4.0 18:11:39 10° NNE 18:13:50 12° NE 18:14:11 12° NE
NOSS 3-4 (A) 4.2 18:07:49 10° NW 18:14:48 69° WSW 18:22:18 10° SSE
NOSS 3-4 (C) 4.2 18:07:55 10° NW 18:14:55 70° WSW 18:22:25 10° SSE
Cosmos 1898 Rocket 4.3 18:10:44 10° N 18:15:23 29° ENE 18:18:55 15° ESE
Cosmos 1328 Rocket 3.4 18:13:04 10° N 18:17:27 75° E 18:21:46 10° SSE
Cosmos 1743 Rocket 3.7 18:13:50 10° SSE 18:18:00 47° E 18:22:10 10° NNE
TELKOM 3 4.0 18:16:18 10° NW 18:18:14 28° N 18:18:19 28° NNE
Cosmos 44 3.4 18:14:53 10° SW 18:19:10 63° NW 18:23:09 13° NNE
ATLAS 5 CENTAUR R/B 4.2 18:18:15 10° NNW 18:20:39 13° NNE 18:22:43 11° NNE
TIMED 4.4 18:17:13 10° NNW 18:21:37 80° ENE 18:25:58 10° SSE
Cosmos 2228 Rocket 3.1 18:17:20 10° N 18:21:54 63° E 18:26:26 10° SSE
Cosmos 371 Rocket 3.5 18:21:54 10° S 18:26:31 48° ESE 18:29:49 19° NE
Cosmos 2098 Rocket 3.9 18:26:47 10° N 18:32:14 87° W 18:38:59 10° S
PKM 3.4 18:30:12 10° NW 18:32:54 89° SSW 18:35:47 18° SE
Cosmos 2278 4.4 18:30:30 10° N 18:35:38 33° NE 18:37:11 28° E
Envisat 3.8 18:36:31 28° ENE 18:36:31 28° ENE 18:40:41 10° N
DMSP B5D1-3 4.4 18:33:21 10° NNE 18:38:28 76° ESE 18:43:33 10° S
Cosmos 2058 2.8 18:36:43 10° S 18:40:53 85° E 18:45:08 10° N
BREEZE-M R/B 3.1 18:39:06 10° W 18:40:46 37° NNW 18:40:46 37° NNW
H-2A R/B 2.6 18:41:18 10° SSE 18:45:07 79° ENE 18:49:02 10° N
Cosmos 1570 Rocket 4.0 18:40:13 10° S 18:45:24 59° ESE 18:48:25 25° NE
Cosmos 1455 2.4 18:42:10 10° NNW 18:46:00 70° W 18:49:47 10° S
Cosmos 1151 Rocket 3.0 18:41:43 10° N 18:46:08 86° W 18:50:31 10° S
COSMOS 2406 3.2 18:42:21 10° SSW 18:48:05 88° WNW 18:52:43 16° NNE
Cosmos 1821 Rocket 3.9 18:42:17 10° N 18:48:27 72° E 18:54:41 10° SSE
Cosmos 1346 Rocket 4.3 18:45:26 10° NNW 18:49:02 36° W 18:52:37 10° SSW
GEOS 3 Rocket 3.9 18:47:06 33° E 18:49:03 49° NE 18:54:14 10° NNW
Cosmos 1833 Rocket 4.5 18:46:03 10° SSE 18:47:19 15° SE 18:47:19 15° SE
Cosmos 1535 Rocket 4.4 18:44:05 10° N 18:50:11 63° ENE 18:56:14 10° SSE
Cosmos 2369 4.0 18:45:31 10° NNW 18:51:00 44° ENE 18:52:29 37° E
CZ-4 R/B 4.5 18:49:54 10° SW 18:52:50 18° W 18:55:47 10° NW
Cosmos 1656 4.0 18:49:07 10° NNW 18:54:17 41° ENE 18:54:46 40° ENE
Cosmos 1626 4.1 18:53:32 10° SW 18:56:48 29° WNW 19:00:05 10° NNW
USA 215 4.3 18:54:04 22° NE 18:57:10 32° N 19:02:50 10° WNW
Cosmos 1697 Rocket 3.5 18:54:41 10° N 18:59:05 32° NE 18:59:05 32° NE
RESURS DK-1 3.1 18:57:16 10° NNW 19:00:14 38° NNE 19:00:14 38° NNE
Cosmos 44 Rocket 4.5 18:58:07 10° WSW 19:02:29 37° NW 19:05:18 20° NNE
FengYun 1-2 T 4.3 18:58:56 10° SSE 19:04:34 81° WSW 19:10:11 10° NNW
Nadezhda 3 Rocket 4.2 18:58:46 10° SSW 19:05:05 74° W 19:11:30 10° N
Cosmos 1937 Rocket 3.5 19:00:56 10° NNW 19:06:06 53° ENE 19:06:17 53° ENE
ERBS 2.9 19:04:33 10° NW 19:07:28 57° W 19:07:28 57° W
Cosmos 2298 Rocket 4.2 19:03:51 10° NNW 19:08:44 50° NE 19:08:44 50° NE
Cosmos 2151 3.9 19:07:05 10° SSW 19:11:14 49° WNW 19:15:26 10° N
Meteor 2-10 Rocket 3.4 19:07:02 10° N 19:11:38 59° NE 19:11:38 59° NE
Thor Agena Rocket 3.5 19:12:21 55° ENE 19:13:11 64° ESE 19:18:21 10° S
ERS-2 4.0 19:15:16 10° SSW 19:18:33 30° W 19:21:52 10° NW
Cosmos 1934 Rocket 4.0 19:16:16 10° N 19:22:40 87° W 19:29:02 10° S
Cosmos 2322 Rocket 4.4 19:23:16 10° N 19:23:40 11° N 19:23:40 11° N
Cosmos 1340 4.0 19:26:40 10° NNW 19:30:13 39° W 19:31:19 31° SW
Cosmos 1605 Rocket 3.8 19:25:01 10° N 19:31:10 77° E 19:32:51 50° SSE
CZ-4C R/B 2.6 19:27:33 10° SSW 19:31:21 46° S 19:31:21 46° S
Lacrosse 5 2.7 19:37:33 10° SW 19:40:56 41° SSW 19:40:56 41° SSW
SL-16 R/B 4.5 19:45:42 10° N 19:46:14 12° N 19:46:14 12° N
Cosmos 1980 Rocket 3.8 19:53:41 10° NNW 19:55:59 24° N 19:55:59 24° N
ATLAS 5 CENTAUR R/B 4.2 20:02:22 10° NNW 20:04:17 19° N 20:04:17 19° N
Cosmos 2082 Rocket 4.1 20:05:11 10° SSW 20:06:43 19° SSW 20:06:43 19° SSW
Envisat 4.5 20:16:42 33° WNW 20:16:42 33° WNW 20:20:03 10° NNW
